Time,TemperatureF,DewpointF,PressureIn,WindDirection,WindDirectionDegrees,WindSpeedMPH,WindSpeedGustMPH,Humidity,HourlyPrecipIn,Conditions,Clouds,dailyrainin,SoftwareType,DateUTC
2013-03-11 00:00:00,52.2,25.3,29.94,SSW,200,4.6,4.6,35,0.00,RA,,0.00,WeatherDisplay:10.37,2013-03-11 04:00:00,
2013-03-11 00:05:00,52.0,25.1,29.94,SSW,200,5.8,5.8,35,0.00,RA,,0.00,WeatherDisplay:10.37,2013-03-11 04:05:00,
2013-03-11 00:10:00,51.8,25.0,29.95,SSW,200,5.8,5.8,35,0.00,CLR,,0.00,WeatherDisplay:10.37,2013-03-11 04:10:00,
2013-03-11 00:15:00,51.6,24.8,29.95,SSW,200,5.8,5.8,35,0.00,CLR,,0.00,WeatherDisplay:10.37,2013-03-11 04:15:00,
2013-03-11 00:20:00,51.6,25.5,29.95,SSW,200,5.8,5.8,36,0.00,CLR,,0.00,WeatherDisplay:10.37,2013-03-11 04:20:00,
2013-03-11 00:25:00,51.4,25.3,29.95,SW,220,6.9,6.9,36,0.00,CLR,,0.00,WeatherDisplay:10.37,2013-03-11 04:25:00,
2013-03-11 00:30:00,51.3,25.2,29.95,SW,220,6.9,6.9,36,0.00,CLR,,0.00,WeatherDisplay:10.37,2013-03-11 04:30:00,
2013-03-11 00:35:00,51.1,25.0,29.94,SW,220,6.9,6.9,36,0.00,CLR,,0.00,WeatherDisplay:10.37,2013-03-11 04:35:00,
2013-03-11 00:40:00,51.1,25.0,29.94,SW,220,6.9,6.9,36,0.00,CLR,,0.00,WeatherDisplay:10.37,2013-03-11 04:40:00,
2013-03-11 00:45:00,51.3,25.2,29.93,South,170,6.9,6.9,36,0.00,CLR,,0.00,WeatherDisplay:10.37,2013-03-11 04:45:00,
2013-03-11 00:50:00,51.4,25.3,29.93,South,170,6.9,6.9,36,0.00,CLR,,0.00,WeatherDisplay:10.37,2013-03-11 04:50:00,
2013-03-11 00:55:00,51.3,25.2,29.93,South,170,6.9,6.9,36,0.00,CLR,,0.00,WeatherDisplay:10.37,2013-03-11 04:55:00,
2013-03-11 01:00:00,51.4,25.3,29.94,South,170,6.9,6.9,36,0.00,CLR,,0.00,WeatherDisplay:10.37,2013-03-11 05:00:00,
2013-03-11 01:05:00,51.4,25.3,29.94,South,170,6.9,6.9,36,0.00,CLR,,0.00,WeatherDisplay:10.37,2013-03-11 05:05:00,
2013-03-11 01:10:00,51.1,25.0,29.93,South,170,6.9,6.9,36,0.00,CLR,,0.00,WeatherDisplay:10.37,2013-03-11 05:10:00,
2013-03-11 01:15:00,50.9,24.9,29.94,South,170,6.9,6.9,36,0.00,CLR,,0.00,WeatherDisplay:10.37,2013-03-11 05:15:00,
2013-03-11 01:20:00,50.7,24.7,29.94,South,170,6.9,6.9,36,0.00,CLR,,0.00,WeatherDisplay:10.37,2013-03-11 05:20:00,
2013-03-11 01:25:00,50.5,24.5,29.93,SSE,160,4.6,4.6,36,0.00,CLR,,0.00,WeatherDisplay:10.37,2013-03-11 05:25:00,
2013-03-11 01:30:00,50.7,24.7,29.93,SSE,160,4.6,4.6,36,0.00,CLR,,0.00,WeatherDisplay:10.37,2013-03-11 05:30:00,
2013-03-11 01:35:00,50.5,25.2,29.93,SSE,160,4.6,4.6,37,0.00,CLR,,0.00,WeatherDisplay:10.37,2013-03-11 05:35:00,
2013-03-11 01:40:00,50.5,25.2,29.93,SSE,160,4.6,4.6,37,0.00,CLR,,0.00,WeatherDisplay:10.37,2013-03-11 05:40:00,
2013-03-11 01:45:00,50.5,24.5,29.93,SSE,160,4.6,4.6,36,0.00,CLR,,0.00,WeatherDisplay:10.37,2013-03-11 05:45:00,
2013-03-11 01:50:00,50.5,25.2,29.93,SSE,160,4.6,4.6,37,0.00,CLR,,0.00,WeatherDisplay:10.37,2013-03-11 05:50:00,
2013-03-11 01:55:00,50.2,24.9,29.92,South,170,3.5,3.5,37,0.00,CLR,,0.00,WeatherDisplay:10.37,2013-03-11 05:55:00,
2013-03-11 02:00:00,50.2,24.9,29.92,South,170,3.5,3.5,37,0.00,CLR,,0.00,WeatherDisplay:10.37,2013-03-11 06:00:00,
2013-03-11 02:05:00,50.2,24.9,29.92,South,170,3.5,3.5,37,0.00,CLR,,0.00,WeatherDisplay:10.37,2013-03-11 06:05:00,
2013-03-11 02:10:00,50.2,24.9,29.92,South,170,3.5,3.5,37,0.00,CLR,,0.00,WeatherDisplay:10.37,2013-03-11 06:10:00,
2013-03-11 02:15:00,50.2,24.9,29.92,SSW,210,4.6,4.6,37,0.00,CLR,,0.00,WeatherDisplay:10.37,2013-03-11 06:15:00,
2013-03-11 02:20:00,50.2,24.9,29.92,SSW,210,4.6,4.6,37,0.00,CLR,,0.00,WeatherDisplay:10.37,2013-03-11 06:20:00,
2013-03-11 02:25:00,49.8,24.6,29.93,SSW,210,4.6,4.6,37,0.00,CLR,,0.00,WeatherDisplay:10.37,2013-03-11 06:25:00,
2013-03-11 02:30:00,49.6,25.0,29.93,SSW,210,4.6,4.6,38,0.00,CLR,,0.00,WeatherDisplay:10.37,2013-03-11 06:30:00,
2013-03-11 02:35:00,49.3,24.7,29.92,SW,220,3.5,3.5,38,0.00,CLR,,0.00,WeatherDisplay:10.37,2013-03-11 06:35:00,
2013-03-11 02:40:00,49.3,24.7,29.92,SW,220,3.5,3.5,38,0.00,CLR,,0.00,WeatherDisplay:10.37,2013-03-11 06:40:00,
2013-03-11 02:45:00,49.1,24.6,29.92,SW,220,3.5,3.5,38,0.00,CLR,,0.00,WeatherDisplay:10.37,2013-03-11 06:45:00,
2013-03-11 02:50:00,48.9,25.0,29.92,SW,220,3.5,3.5,39,0.00,CLR,,0.00,WeatherDisplay:10.37,2013-03-11 06:50:00,
2013-03-11 02:55:00,48.7,24.9,29.92,SW,230,3.5,3.5,39,0.00,CLR,,0.00,WeatherDisplay:10.37,2013-03-11 06:55:00,
2013-03-11 03:00:00,48.7,24.9,29.92,SW,230,3.5,3.5,39,0.00,CLR,,0.00,WeatherDisplay:10.37,2013-03-11 07:00:00,
2013-03-11 03:05:00,48.7,24.9,29.92,SW,230,3.5,3.5,39,0.00,CLR,,0.00,WeatherDisplay:10.37,2013-03-11 07:05:00,
2013-03-11 03:10:00,48.7,24.9,29.92,SW,230,3.5,3.5,39,0.00,CLR,,0.00,WeatherDisplay:10.37,2013-03-11 07:10:00,
2013-03-11 03:15:00,48.7,24.9,29.91,WSW,240,4.6,4.6,39,0.00,CLR,,0.00,WeatherDisplay:10.37,2013-03-11 07:15:00,
2013-03-11 03:20:00,48.7,24.9,29.91,WSW,240,4.6,4.6,39,0.00,CLR,,0.00,WeatherDisplay:10.37,2013-03-11 07:20:00,
2013-03-11 03:25:00,48.7,24.9,29.91,WSW,240,4.6,4.6,39,0.00,CLR,,0.00,WeatherDisplay:10.37,2013-03-11 07:25:00,
2013-03-11 03:30:00,48.6,24.7,29.90,WSW,240,4.6,4.6,39,0.00,CLR,,0.00,WeatherDisplay:10.37,2013-03-11 07:30:00,
2013-03-11 03:35:00,48.6,24.7,29.90,SSW,200,6.9,6.9,39,0.00,CLR,,0.00,WeatherDisplay:10.37,2013-03-11 07:35:00,
2013-03-11 03:40:00,48.6,24.7,29.90,SSW,200,6.9,6.9,39,0.00,CLR,,0.00,WeatherDisplay:10.37,2013-03-11 07:40:00,
2013-03-11 03:45:00,48.6,24.7,29.89,SSW,200,6.9,6.9,39,0.00,CLR,,0.00,WeatherDisplay:10.37,2013-03-11 07:45:00,
2013-03-11 03:50:00,48.2,24.4,29.89,SSW,200,6.9,6.9,39,0.00,CLR,,0.00,WeatherDisplay:10.37,2013-03-11 07:50:00,
2013-03-11 03:55:00,48.2,25.0,29.89,SSW,200,5.8,5.8,40,0.00,CLR,,0.00,WeatherDisplay:10.37,2013-03-11 07:55:00,
2013-03-11 04:00:00,48.0,24.8,29.89,SSW,200,5.8,5.8,40,0.00,CLR,,0.00,WeatherDisplay:10.37,2013-03-11 08:00:00,
2013-03-11 04:05:00,48.0,24.8,29.89,SW,230,3.5,3.5,40,0.00,CLR,,0.00,WeatherDisplay:10.37,2013-03-11 08:05:00,
2013-03-11 04:10:00,48.0,24.8,29.89,SW,230,3.5,3.5,40,0.00,CLR,,0.00,WeatherDisplay:10.37,2013-03-11 08:10:00,
2013-03-11 04:15:00,47.8,24.7,29.88,SW,230,3.5,3.5,40,0.00,CLR,,0.00,WeatherDisplay:10.37,2013-03-11 08:15:00,
2013-03-11 04:20:00,47.7,24.5,29.88,SW,230,3.5,3.5,40,0.00,CLR,,0.00,WeatherDisplay:10.37,2013-03-11 08:20:00,
2013-03-11 04:25:00,47.5,24.3,29.88,SW,220,3.5,3.5,40,0.00,CLR,,0.00,WeatherDisplay:10.37,2013-03-11 08:25:00,
2013-03-11 04:30:00,47.3,24.8,29.88,SW,220,3.5,3.5,41,0.00,CLR,,0.00,WeatherDisplay:10.37,2013-03-11 08:30:00,
2013-03-11 04:35:00,47.1,24.6,29.88,SW,220,3.5,3.5,41,0.00,CLR,,0.00,WeatherDisplay:10.37,2013-03-11 08:35:00,
2013-03-11 04:40:00,47.1,24.6,29.88,SW,220,3.5,3.5,41,0.00,CLR,,0.00,WeatherDisplay:10.37,2013-03-11 08:40:00,
2013-03-11 04:45:00,47.1,24.6,29.87,SW,220,0.0,0.0,41,0.00,CLR,,0.00,WeatherDisplay:10.37,2013-03-11 08:45:00,
2013-03-11 04:50:00,47.1,24.6,29.88,SW,220,0.0,0.0,41,0.00,CLR,,0.00,WeatherDisplay:10.37,2013-03-11 08:50:00,
2013-03-11 04:55:00,46.9,24.4,29.87,SW,220,0.0,0.0,41,0.00,CLR,,0.00,WeatherDisplay:10.37,2013-03-11 08:55:00,
2013-03-11 05:00:00,46.9,24.4,29.87,SW,220,0.0,0.0,41,0.00,CLR,,0.00,WeatherDisplay:10.37,2013-03-11 09:00:00,
2013-03-11 05:05:00,46.9,24.4,29.87,SW,220,0.0,0.0,41,0.00,CLR,,0.00,WeatherDisplay:10.37,2013-03-11 09:05:00,
2013-03-11 05:10:00,46.9,24.4,29.87,SW,220,0.0,0.0,41,0.00,CLR,,0.00,WeatherDisplay:10.37,2013-03-11 09:10:00,
2013-03-11 05:15:00,46.9,24.4,29.87,SW,220,0.0,0.0,41,0.00,CLR,,0.00,WeatherDisplay:10.37,2013-03-11 09:15:00,
2013-03-11 05:20:00,47.7,24.5,29.87,SW,220,0.0,0.0,40,0.00,CLR,,0.00,WeatherDisplay:10.37,2013-03-11 09:20:00,
2013-03-11 05:25:00,47.5,24.3,29.86,SW,220,3.5,3.5,40,0.00,CLR,,0.00,WeatherDisplay:10.37,2013-03-11 09:25:00,
2013-03-11 05:30:00,47.5,24.9,29.87,SW,220,3.5,3.5,41,0.00,CLR,,0.00,WeatherDisplay:10.37,2013-03-11 09:30:00,
2013-03-11 05:35:00,47.5,24.9,29.87,SW,220,3.5,3.5,41,0.00,CLR,,0.00,WeatherDisplay:10.37,2013-03-11 09:35:00,
2013-03-11 05:40:00,47.5,24.9,29.86,SW,220,3.5,3.5,41,0.00,CLR,,0.00,WeatherDisplay:10.37,2013-03-11 09:40:00,
2013-03-11 05:45:00,47.1,24.6,29.86,SSW,210,5.8,5.8,41,0.00,CLR,,0.00,WeatherDisplay:10.37,2013-03-11 09:45:00,
2013-03-11 05:50:00,47.1,25.2,29.86,SSW,210,5.8,5.8,42,0.00,CLR,,0.00,WeatherDisplay:10.37,2013-03-11 09:50:00,
2013-03-11 05:55:00,47.1,25.2,29.86,SSW,210,5.8,5.8,42,0.00,CLR,,0.00,WeatherDisplay:10.37,2013-03-11 09:55:00,
2013-03-11 06:00:00,47.1,24.6,29.85,SSW,210,5.8,5.8,41,0.00,CLR,,0.00,WeatherDisplay:10.37,2013-03-11 10:00:00,
2013-03-11 06:05:00,47.1,24.6,29.85,South,180,6.9,6.9,41,0.00,CLR,,0.00,WeatherDisplay:10.37,2013-03-11 10:05:00,
2013-03-11 06:10:00,47.3,24.8,29.85,South,180,6.9,6.9,41,0.00,CLR,,0.00,WeatherDisplay:10.37,2013-03-11 10:10:00,
2013-03-11 06:15:00,47.5,24.9,29.85,South,180,6.9,6.9,41,0.00,CLR,,0.00,WeatherDisplay:10.37,2013-03-11 10:15:00,
2013-03-11 06:20:00,47.5,24.9,29.85,South,180,6.9,6.9,41,0.00,CLR,,0.00,WeatherDisplay:10.37,2013-03-11 10:20:00,
2013-03-11 06:25:00,47.5,24.9,29.86,WSW,240,3.5,3.5,41,0.00,CLR,,0.00,WeatherDisplay:10.37,2013-03-11 10:25:00,
2013-03-11 06:30:00,47.3,24.8,29.86,WSW,240,3.5,3.5,41,0.00,CLR,,0.00,WeatherDisplay:10.37,2013-03-11 10:30:00,
2013-03-11 06:35:00,47.5,24.9,29.86,WSW,240,3.5,3.5,41,0.00,CLR,,0.00,WeatherDisplay:10.37,2013-03-11 10:35:00,
2013-03-11 06:40:00,47.5,25.5,29.86,WSW,240,3.5,3.5,42,0.00,CLR,,0.00,WeatherDisplay:10.37,2013-03-11 10:40:00,
2013-03-11 06:45:00,47.3,25.3,29.86,WSW,240,3.5,3.5,42,0.00,CLR,,0.00,WeatherDisplay:10.37,2013-03-11 10:45:00,
2013-03-11 06:50:00,47.3,25.3,29.86,WSW,240,3.5,3.5,42,0.00,CLR,,0.00,WeatherDisplay:10.37,2013-03-11 10:50:00,
2013-03-11 06:55:00,47.3,25.3,29.86,SW,220,4.6,4.6,42,0.00,CLR,,0.00,WeatherDisplay:10.37,2013-03-11 10:55:00,
2013-03-11 07:00:00,47.1,25.2,29.86,SW,220,4.6,4.6,42,0.00,CLR,,0.00,WeatherDisplay:10.37,2013-03-11 11:00:00,
2013-03-11 07:05:00,47.1,25.2,29.86,SW,220,4.6,4.6,42,0.00,CLR,,0.00,WeatherDisplay:10.37,2013-03-11 11:05:00,
2013-03-11 07:10:00,47.1,25.2,29.86,SW,220,4.6,4.6,42,0.00,CLR,,0.00,WeatherDisplay:10.37,2013-03-11 11:10:00,
2013-03-11 07:15:00,46.9,25.0,29.86,WSW,240,3.5,3.5,42,0.00,CLR,,0.00,WeatherDisplay:10.37,2013-03-11 11:15:00,
2013-03-11 07:20:00,46.8,24.9,29.86,WSW,240,3.5,3.5,42,0.00,CLR,,0.00,WeatherDisplay:10.37,2013-03-11 11:20:00,
2013-03-11 07:25:00,46.9,25.0,29.86,WSW,240,3.5,3.5,42,0.00,CLR,,0.00,WeatherDisplay:10.37,2013-03-11 11:25:00,
2013-03-11 07:30:00,46.8,24.9,29.86,WSW,240,3.5,3.5,42,0.00,CLR,,0.00,WeatherDisplay:10.37,2013-03-11 11:30:00,
2013-03-11 07:35:00,46.8,24.9,29.86,SSW,200,5.8,5.8,42,0.00,CLR,,0.00,WeatherDisplay:10.37,2013-03-11 11:35:00,
2013-03-11 07:40:00,46.6,24.7,29.86,SSW,200,5.8,5.8,42,0.00,CLR,,0.00,WeatherDisplay:10.37,2013-03-11 11:40:00,
2013-03-11 07:45:00,46.2,24.9,29.87,WSW,240,3.5,3.5,43,0.00,CLR,,0.00,WeatherDisplay:10.37,2013-03-11 11:45:00,
2013-03-11 07:50:00,46.2,24.9,29.87,WSW,240,3.5,3.5,43,0.00,CLR,,0.00,WeatherDisplay:10.37,2013-03-11 11:50:00,
2013-03-11 07:55:00,46.0,24.8,29.87,WSW,240,3.5,3.5,43,0.00,CLR,,0.00,WeatherDisplay:10.37,2013-03-11 11:55:00,
2013-03-11 08:00:00,46.0,24.8,29.86,WSW,240,3.5,3.5,43,0.00,CLR,,0.00,WeatherDisplay:10.37,2013-03-11 12:00:00,
2013-03-11 08:05:00,46.2,24.9,29.87,SSW,210,3.5,3.5,43,0.00,CLR,,0.00,WeatherDisplay:10.37,2013-03-11 12:05:00,
2013-03-11 08:10:00,46.2,24.9,29.87,SSW,210,3.5,3.5,43,0.00,CLR,,0.00,WeatherDisplay:10.37,2013-03-11 12:10:00,
2013-03-11 08:15:00,46.2,24.9,29.87,SSW,210,3.5,3.5,43,0.00,CLR,,0.00,WeatherDisplay:10.37,2013-03-11 12:15:00,
2013-03-11 08:20:00,46.6,24.7,29.87,SSW,210,3.5,3.5,42,0.00,CLR,,0.00,WeatherDisplay:10.37,2013-03-11 12:20:00,
2013-03-11 08:25:00,46.6,24.7,29.87,SSW,210,3.5,3.5,42,0.00,CLR,,0.00,WeatherDisplay:10.37,2013-03-11 12:25:00,
2013-03-11 08:30:00,46.6,24.7,29.87,SSW,210,3.5,3.5,42,0.00,CLR,,0.00,WeatherDisplay:10.37,2013-03-11 12:30:00,
2013-03-11 08:35:00,46.6,24.7,29.87,SSW,210,3.5,3.5,42,0.00,CLR,,0.00,WeatherDisplay:10.37,2013-03-11 12:35:00,
2013-03-11 08:40:00,46.6,24.7,29.87,SSW,210,3.5,3.5,42,0.00,CLR,,0.00,WeatherDisplay:10.37,2013-03-11 12:40:00,
2013-03-11 08:45:00,46.8,24.9,29.87,SSW,210,0.0,0.0,42,0.00,CLR,,0.00,WeatherDisplay:10.37,2013-03-11 12:45:00,
2013-03-11 08:50:00,46.9,24.4,29.87,SSW,210,0.0,0.0,41,0.00,CLR,,0.00,WeatherDisplay:10.37,2013-03-11 12:50:00,
2013-03-11 08:55:00,47.1,24.6,29.87,SSW,210,0.0,0.0,41,0.00,CLR,,0.00,WeatherDisplay:10.37,2013-03-11 12:55:00,
2013-03-11 09:00:00,47.1,24.6,29.87,SSW,210,0.0,0.0,41,0.00,CLR,,0.00,WeatherDisplay:10.37,2013-03-11 13:00:00,
2013-03-11 09:05:00,47.5,24.9,29.87,West,280,4.6,4.6,41,0.00,CLR,,0.00,WeatherDisplay:10.37,2013-03-11 13:05:00,
2013-03-11 09:10:00,47.7,24.5,29.86,West,280,4.6,4.6,40,0.00,CLR,,0.00,WeatherDisplay:10.37,2013-03-11 13:10:00,
2013-03-11 09:15:00,47.8,25.2,29.86,West,280,4.6,4.6,41,0.00,CLR,,0.00,WeatherDisplay:10.37,2013-03-11 13:15:00,
2013-03-11 09:20:00,47.8,24.7,29.86,West,280,4.6,4.6,40,0.00,CLR,,0.00,WeatherDisplay:10.37,2013-03-11 13:20:00,
2013-03-11 09:25:00,48.0,24.8,29.86,West,280,4.6,4.6,40,0.00,CLR,,0.00,WeatherDisplay:10.37,2013-03-11 13:25:00,
2013-03-11 09:30:00,48.2,25.0,29.86,West,280,4.6,4.6,40,0.00,CLR,,0.00,WeatherDisplay:10.37,2013-03-11 13:30:00,
2013-03-11 09:35:00,48.2,25.0,29.86,West,280,4.6,4.6,40,0.00,CLR,,0.00,WeatherDisplay:10.37,2013-03-11 13:35:00,
2013-03-11 09:40:00,48.2,25.0,29.86,West,280,4.6,4.6,40,0.00,CLR,,0.00,WeatherDisplay:10.37,2013-03-11 13:40:00,
2013-03-11 09:45:00,48.6,24.7,29.86,West,280,0.0,0.0,39,0.00,CLR,,0.00,WeatherDisplay:10.37,2013-03-11 13:45:00,
2013-03-11 09:50:00,48.6,25.3,29.86,West,280,0.0,0.0,40,0.00,CLR,,0.00,WeatherDisplay:10.37,2013-03-11 13:50:00,
2013-03-11 09:55:00,48.9,25.0,29.86,West,280,0.0,0.0,39,0.00,CLR,,0.00,WeatherDisplay:10.37,2013-03-11 13:55:00,
2013-03-11 10:00:00,49.1,25.2,29.86,West,280,0.0,0.0,39,0.00,CLR,,0.00,WeatherDisplay:10.37,2013-03-11 14:00:00,
2013-03-11 10:05:00,49.3,25.3,29.86,WSW,250,4.6,4.6,39,0.00,CLR,,0.00,WeatherDisplay:10.37,2013-03-11 14:05:00,
2013-03-11 10:10:00,49.6,25.7,29.86,WSW,250,4.6,4.6,39,0.00,CLR,,0.00,WeatherDisplay:10.37,2013-03-11 14:10:00,
2013-03-11 10:15:00,49.8,25.2,29.87,WSW,250,4.6,4.6,38,0.00,CLR,,0.00,WeatherDisplay:10.37,2013-03-11 14:15:00,
2013-03-11 10:20:00,50.2,25.5,29.86,WSW,250,4.6,4.6,38,0.00,CLR,,0.00,WeatherDisplay:10.37,2013-03-11 14:20:00,
2013-03-11 10:25:00,50.7,25.4,29.86,SSW,200,5.8,5.8,37,0.00,CLR,,0.00,WeatherDisplay:10.37,2013-03-11 14:25:00,
2013-03-11 10:30:00,50.9,24.9,29.86,SSW,200,5.8,5.8,36,0.00,CLR,,0.00,WeatherDisplay:10.37,2013-03-11 14:30:00,
2013-03-11 10:35:00,51.3,24.5,29.86,SSW,200,5.8,5.8,35,0.00,CLR,,0.00,WeatherDisplay:10.37,2013-03-11 14:35:00,
2013-03-11 10:40:00,51.3,23.8,29.87,SSW,200,5.8,5.8,34,0.00,CLR,,0.00,WeatherDisplay:10.37,2013-03-11 14:40:00,
2013-03-11 10:45:00,51.1,23.7,29.87,South,190,6.9,6.9,34,0.00,CLR,,0.00,WeatherDisplay:10.37,2013-03-11 14:45:00,
2013-03-11 10:50:00,51.1,23.7,29.87,South,190,6.9,6.9,34,0.00,CLR,,0.00,WeatherDisplay:10.37,2013-03-11 14:50:00,
2013-03-11 10:55:00,51.3,23.8,29.87,South,190,6.9,6.9,34,0.00,CLR,,0.00,WeatherDisplay:10.37,2013-03-11 14:55:00,
2013-03-11 11:00:00,51.1,23.7,29.86,South,190,6.9,6.9,34,0.00,CLR,,0.00,WeatherDisplay:10.37,2013-03-11 15:00:00,
2013-03-11 11:05:00,50.9,24.2,29.86,SSW,210,5.8,5.8,35,0.00,CLR,,0.00,WeatherDisplay:10.37,2013-03-11 15:05:00,
2013-03-11 11:10:00,50.9,23.5,29.86,SSW,210,5.8,5.8,34,0.00,CLR,,0.00,WeatherDisplay:10.37,2013-03-11 15:10:00,
2013-03-11 11:15:00,50.9,24.2,29.86,SSW,210,5.8,5.8,35,0.00,CLR,,0.00,WeatherDisplay:10.37,2013-03-11 15:15:00,
2013-03-11 11:20:00,51.1,24.3,29.85,SSW,210,5.8,5.8,35,0.00,CLR,,0.00,WeatherDisplay:10.37,2013-03-11 15:20:00,
2013-03-11 11:25:00,51.1,23.7,29.85,SSW,210,5.8,5.8,34,0.00,CLR,,0.00,WeatherDisplay:10.37,2013-03-11 15:25:00,
2013-03-11 11:30:00,51.3,23.8,29.85,SSW,210,5.8,5.8,34,0.00,CLR,,0.00,WeatherDisplay:10.37,2013-03-11 15:30:00,
2013-03-11 11:35:00,51.1,23.7,29.85,SSE,160,5.8,5.8,34,0.00,CLR,,0.00,WeatherDisplay:10.37,2013-03-11 15:35:00,
2013-03-11 11:40:00,51.3,24.5,29.85,SSE,160,5.8,5.8,35,0.00,CLR,,0.00,WeatherDisplay:10.37,2013-03-11 15:40:00,
2013-03-11 11:45:00,51.1,24.3,29.85,SSE,160,5.8,5.8,35,0.00,CLR,,0.00,WeatherDisplay:10.37,2013-03-11 15:45:00,
2013-03-11 11:50:00,51.3,24.5,29.85,SSE,160,5.8,5.8,35,0.00,CLR,,0.00,WeatherDisplay:10.37,2013-03-11 15:50:00,
2013-03-11 11:55:00,51.4,24.7,29.85,South,190,6.9,6.9,35,0.00,CLR,,0.00,WeatherDisplay:10.37,2013-03-11 15:55:00,
2013-03-11 12:00:00,51.6,24.8,29.84,South,190,6.9,6.9,35,0.00,CLR,,0.00,WeatherDisplay:10.37,2013-03-11 16:00:00,
2013-03-11 12:05:00,51.6,25.5,29.84,SSE,160,4.6,4.6,36,0.00,CLR,,0.00,WeatherDisplay:10.37,2013-03-11 16:05:00,
2013-03-11 12:10:00,52.0,25.1,29.84,SSE,160,4.6,4.6,35,0.00,CLR,,0.00,WeatherDisplay:10.37,2013-03-11 16:10:00,
2013-03-11 12:15:00,52.0,25.8,29.84,SSE,160,4.6,4.6,36,0.00,CLR,,0.00,WeatherDisplay:10.37,2013-03-11 16:15:00,
2013-03-11 12:20:00,52.2,26.0,29.84,SSE,160,4.6,4.6,36,0.00,CLR,,0.00,WeatherDisplay:10.37,2013-03-11 16:20:00,
2013-03-11 12:25:00,52.3,26.8,29.84,South,170,10.4,10.4,37,0.00,CLR,,0.00,WeatherDisplay:10.37,2013-03-11 16:25:00,
2013-03-11 12:30:00,52.5,27.6,29.83,South,170,10.4,10.4,38,0.00,CLR,,0.00,WeatherDisplay:10.37,2013-03-11 16:30:00,
2013-03-11 12:35:00,52.3,26.1,29.83,South,170,10.4,10.4,36,0.00,CLR,,0.00,WeatherDisplay:10.37,2013-03-11 16:35:00,
2013-03-11 12:40:00,52.3,26.1,29.84,South,170,10.4,10.4,36,0.00,CLR,,0.00,WeatherDisplay:10.37,2013-03-11 16:40:00,
2013-03-11 12:45:00,52.3,25.5,29.83,South,170,10.4,10.4,35,0.00,CLR,,0.00,WeatherDisplay:10.37,2013-03-11 16:45:00,
2013-03-11 12:50:00,52.5,24.9,29.83,South,170,10.4,10.4,34,0.00,CLR,,0.00,WeatherDisplay:10.37,2013-03-11 16:50:00,
2013-03-11 12:55:00,52.9,25.2,29.83,SSE,160,6.9,6.9,34,0.00,CLR,,0.00,WeatherDisplay:10.37,2013-03-11 16:55:00,
2013-03-11 13:00:00,52.9,25.2,29.84,SSE,160,6.9,6.9,34,0.00,CLR,,0.00,WeatherDisplay:10.37,2013-03-11 17:00:00,
2013-03-11 13:05:00,53.2,25.6,29.84,South,180,6.9,6.9,34,0.00,CLR,,0.00,WeatherDisplay:10.37,2013-03-11 17:05:00,
2013-03-11 13:10:00,53.2,25.6,29.83,South,180,6.9,6.9,34,0.00,CLR,,0.00,WeatherDisplay:10.37,2013-03-11 17:10:00,
2013-03-11 13:15:00,53.4,25.7,29.83,South,180,6.9,6.9,34,0.00,CLR,,0.00,WeatherDisplay:10.37,2013-03-11 17:15:00,
2013-03-11 13:20:00,53.4,25.7,29.82,South,180,6.9,6.9,34,0.00,CLR,,0.00,WeatherDisplay:10.37,2013-03-11 17:20:00,
2013-03-11 13:25:00,53.8,26.7,29.82,South,180,6.9,6.9,35,0.00,CLR,,0.00,WeatherDisplay:10.37,2013-03-11 17:25:00,
2013-03-11 13:30:00,53.8,26.7,29.82,South,180,6.9,6.9,35,0.00,CLR,,0.00,WeatherDisplay:10.37,2013-03-11 17:30:00,
2013-03-11 13:35:00,53.8,28.1,29.81,South,180,19.6,19.6,37,0.00,CLR,,0.00,WeatherDisplay:10.37,2013-03-11 17:35:00,
2013-03-11 13:40:00,54.1,29.1,29.81,South,180,19.6,19.6,38,0.00,CLR,,0.00,WeatherDisplay:10.37,2013-03-11 17:40:00,
2013-03-11 13:45:00,54.3,30.5,29.81,SSE,160,18.4,18.4,40,0.00,CLR,,0.00,WeatherDisplay:10.37,2013-03-11 17:45:00,
2013-03-11 13:50:00,54.5,31.9,29.81,SSE,160,18.4,18.4,42,0.00,CLR,,0.00,WeatherDisplay:10.37,2013-03-11 17:50:00,
2013-03-11 13:55:00,54.5,32.4,29.80,SSE,160,18.4,18.4,43,0.00,CLR,,0.00,WeatherDisplay:10.37,2013-03-11 17:55:00,
2013-03-11 14:00:00,54.9,33.9,29.80,SSE,160,18.4,18.4,45,0.00,CLR,,0.00,WeatherDisplay:10.37,2013-03-11 18:00:00,
2013-03-11 14:05:00,54.7,34.8,29.80,SSE,160,11.5,11.5,47,0.00,CLR,,0.00,WeatherDisplay:10.37,2013-03-11 18:05:00,
2013-03-11 14:10:00,55.2,36.4,29.79,SSE,160,11.5,11.5,49,0.00,CLR,,0.00,WeatherDisplay:10.37,2013-03-11 18:10:00,
2013-03-11 14:15:00,55.2,37.4,29.79,SSE,160,11.5,11.5,51,0.00,CLR,,0.00,WeatherDisplay:10.37,2013-03-11 18:15:00,
2013-03-11 14:20:00,55.0,38.2,29.79,SSE,160,11.5,11.5,53,0.00,CLR,,0.00,WeatherDisplay:10.37,2013-03-11 18:20:00,
2013-03-11 14:25:00,55.2,38.9,29.79,SSE,150,8.1,8.1,54,0.00,SCT,,0.00,WeatherDisplay:10.37,2013-03-11 18:25:00,
2013-03-11 14:30:00,55.2,39.3,29.79,SSE,150,8.1,8.1,55,0.00,SCT,,0.00,WeatherDisplay:10.37,2013-03-11 18:30:00,
2013-03-11 14:35:00,55.2,39.8,29.79,SSE,150,8.1,8.1,56,0.00,SCT,,0.00,WeatherDisplay:10.37,2013-03-11 18:35:00,
2013-03-11 14:40:00,54.7,39.3,29.78,SSE,150,8.1,8.1,56,0.00,SCT,,0.00,WeatherDisplay:10.37,2013-03-11 18:40:00,
2013-03-11 14:45:00,54.3,39.8,29.78,SSE,160,23.0,23.0,58,0.00,CLR,,0.00,WeatherDisplay:10.37,2013-03-11 18:45:00,
2013-03-11 14:50:00,54.1,40.1,29.78,SSE,160,23.0,23.0,59,0.00,CLR,,0.00,WeatherDisplay:10.37,2013-03-11 18:50:00,
2013-03-11 14:55:00,54.1,40.1,29.78,SSE,160,23.0,23.0,59,0.00,CLR,,0.00,WeatherDisplay:10.37,2013-03-11 18:55:00,
2013-03-11 15:00:00,54.1,40.6,29.78,SSE,160,23.0,23.0,60,0.00,CLR,,0.00,WeatherDisplay:10.37,2013-03-11 19:00:00,
2013-03-11 15:05:00,54.0,40.4,29.77,SSE,150,19.6,19.6,60,0.00,CLR,,0.00,WeatherDisplay:10.37,2013-03-11 19:05:00,
2013-03-11 15:10:00,54.0,40.4,29.78,SSE,150,19.6,19.6,60,0.00,CLR,,0.00,WeatherDisplay:10.37,2013-03-11 19:10:00,
2013-03-11 15:15:00,53.8,40.2,29.78,SSE,150,19.6,19.6,60,0.00,CLR,,0.00,WeatherDisplay:10.37,2013-03-11 19:15:00,
2013-03-11 15:20:00,53.8,40.2,29.78,SSE,150,19.6,19.6,60,0.00,CLR,,0.00,WeatherDisplay:10.37,2013-03-11 19:20:00,
2013-03-11 15:25:00,53.8,40.6,29.78,SSE,160,23.0,23.0,61,0.00,CLR,,0.00,WeatherDisplay:10.37,2013-03-11 19:25:00,
2013-03-11 15:30:00,53.8,40.6,29.77,SSE,160,23.0,23.0,61,0.00,CLR,,0.00,WeatherDisplay:10.37,2013-03-11 19:30:00,
2013-03-11 15:35:00,53.8,40.6,29.77,SSE,160,23.0,23.0,61,0.00,CLR,,0.00,WeatherDisplay:10.37,2013-03-11 19:35:00,
2013-03-11 15:40:00,53.8,40.6,29.77,SSE,160,23.0,23.0,61,0.00,CLR,,0.00,WeatherDisplay:10.37,2013-03-11 19:40:00,
2013-03-11 15:45:00,53.8,41.1,29.77,South,170,23.0,23.0,62,0.00,SCT,,0.00,WeatherDisplay:10.37,2013-03-11 19:45:00,
2013-03-11 15:50:00,53.8,41.1,29.76,South,170,23.0,23.0,62,0.00,SCT,,0.00,WeatherDisplay:10.37,2013-03-11 19:50:00,
2013-03-11 15:55:00,53.4,40.7,29.76,South,170,23.0,23.0,62,0.00,SCT,,0.00,WeatherDisplay:10.37,2013-03-11 19:55:00,
2013-03-11 16:00:00,53.4,41.1,29.76,South,170,23.0,23.0,63,0.00,SCT,,0.00,WeatherDisplay:10.37,2013-03-11 20:00:00,
2013-03-11 16:05:00,53.4,41.1,29.75,SSE,160,10.4,10.4,63,0.00,SCT,,0.00,WeatherDisplay:10.37,2013-03-11 20:05:00,
2013-03-11 16:10:00,53.4,41.1,29.75,SSE,160,10.4,10.4,63,0.00,SCT,,0.00,WeatherDisplay:10.37,2013-03-11 20:10:00,
2013-03-11 16:15:00,53.4,41.1,29.74,SSE,160,10.4,10.4,63,0.00,SCT,,0.00,WeatherDisplay:10.37,2013-03-11 20:15:00,
2013-03-11 16:20:00,53.8,41.5,29.72,SSE,160,10.4,10.4,63,0.00,SCT,,0.00,WeatherDisplay:10.37,2013-03-11 20:20:00,
2013-03-11 16:25:00,54.0,41.6,29.72,SSE,150,8.1,8.1,63,0.00,SCT,,0.00,WeatherDisplay:10.37,2013-03-11 20:25:00,
2013-03-11 16:30:00,54.1,41.8,29.72,SSE,150,8.1,8.1,63,0.00,SCT,,0.00,WeatherDisplay:10.37,2013-03-11 20:30:00,
2013-03-11 16:35:00,54.3,42.4,29.72,SSE,150,8.1,8.1,64,0.00,SCT,,0.00,WeatherDisplay:10.37,2013-03-11 20:35:00,
2013-03-11 16:40:00,54.3,42.4,29.72,SSE,150,8.1,8.1,64,0.00,SCT,,0.00,WeatherDisplay:10.37,2013-03-11 20:40:00,
2013-03-11 16:45:00,54.5,42.6,29.72,SSE,150,8.1,8.1,64,0.00,SCT,,0.00,WeatherDisplay:10.37,2013-03-11 20:45:00,
2013-03-11 16:50:00,54.7,42.7,29.72,SSE,150,8.1,8.1,64,0.00,SCT,,0.00,WeatherDisplay:10.37,2013-03-11 20:50:00,
2013-03-11 16:55:00,54.7,42.7,29.72,South,180,10.4,10.4,64,0.00,SCT,,0.00,WeatherDisplay:10.37,2013-03-11 20:55:00,
2013-03-11 17:00:00,55.0,43.5,29.73,South,180,10.4,10.4,65,0.00,SCT,,0.00,WeatherDisplay:10.37,2013-03-11 21:00:00,
2013-03-11 17:05:00,55.0,43.5,29.73,South,180,10.4,10.4,65,0.00,SCT,,0.00,WeatherDisplay:10.37,2013-03-11 21:05:00,
2013-03-11 17:10:00,54.9,43.3,29.73,South,180,10.4,10.4,65,0.00,SCT,,0.00,WeatherDisplay:10.37,2013-03-11 21:10:00,
2013-03-11 17:15:00,54.7,43.5,29.74,South,170,12.7,12.7,66,0.00,BKN,,0.00,WeatherDisplay:10.37,2013-03-11 21:15:00,
2013-03-11 17:20:00,54.7,43.9,29.73,South,170,12.7,12.7,67,0.00,BKN,,0.00,WeatherDisplay:10.37,2013-03-11 21:20:00,
2013-03-11 17:25:00,54.5,43.8,29.73,South,170,12.7,12.7,67,0.00,BKN,,0.00,WeatherDisplay:10.37,2013-03-11 21:25:00,
2013-03-11 17:30:00,54.5,44.2,29.73,South,170,12.7,12.7,68,0.00,BKN,,0.00,WeatherDisplay:10.37,2013-03-11 21:30:00,
2013-03-11 17:35:00,54.5,44.2,29.73,South,190,11.5,11.5,68,0.00,SCT,,0.00,WeatherDisplay:10.37,2013-03-11 21:35:00,
2013-03-11 17:40:00,54.5,44.2,29.72,South,190,11.5,11.5,68,0.00,SCT,,0.00,WeatherDisplay:10.37,2013-03-11 21:40:00,
2013-03-11 17:45:00,54.5,44.5,29.73,South,190,11.5,11.5,69,0.00,SCT,,0.00,WeatherDisplay:10.37,2013-03-11 21:45:00,
2013-03-11 17:50:00,54.3,44.4,29.73,South,190,11.5,11.5,69,0.00,SCT,,0.00,WeatherDisplay:10.37,2013-03-11 21:50:00,
2013-03-11 17:55:00,54.3,44.4,29.72,South,180,9.2,9.2,69,0.00,SCT,,0.00,WeatherDisplay:10.37,2013-03-11 21:55:00,
2013-03-11 18:00:00,54.3,44.4,29.72,South,180,9.2,9.2,69,0.00,SCT,,0.00,WeatherDisplay:10.37,2013-03-11 22:00:00,
2013-03-11 18:05:00,54.3,44.4,29.72,South,180,9.2,9.2,69,0.00,SCT,,0.00,WeatherDisplay:10.37,2013-03-11 22:05:00,
2013-03-11 18:10:00,54.3,44.4,29.72,South,180,9.2,9.2,69,0.00,SCT,,0.00,WeatherDisplay:10.37,2013-03-11 22:10:00,
2013-03-11 18:15:00,54.3,44.4,29.72,South,180,9.2,9.2,69,0.00,BKN,,0.00,WeatherDisplay:10.37,2013-03-11 22:15:00,
2013-03-11 18:20:00,54.3,44.4,29.72,South,180,9.2,9.2,69,0.00,BKN,,0.00,WeatherDisplay:10.37,2013-03-11 22:20:00,
2013-03-11 18:25:00,54.3,44.4,29.72,South,180,9.2,9.2,69,0.00,BKN,,0.00,WeatherDisplay:10.37,2013-03-11 22:25:00,
2013-03-11 18:30:00,54.3,44.7,29.72,South,180,9.2,9.2,70,0.00,BKN,,0.00,WeatherDisplay:10.37,2013-03-11 22:30:00,
2013-03-11 18:35:00,54.1,44.6,29.72,South,190,8.1,8.1,70,0.00,BKN,,0.00,WeatherDisplay:10.37,2013-03-11 22:35:00,
2013-03-11 18:40:00,54.1,44.6,29.72,South,190,8.1,8.1,70,0.00,BKN,,0.00,WeatherDisplay:10.37,2013-03-11 22:40:00,
2013-03-11 18:45:00,54.1,44.6,29.72,South,190,8.1,8.1,70,0.00,BKN,,0.00,WeatherDisplay:10.37,2013-03-11 22:45:00,
2013-03-11 18:50:00,54.1,44.6,29.72,South,190,8.1,8.1,70,0.00,BKN,,0.00,WeatherDisplay:10.37,2013-03-11 22:50:00,
2013-03-11 18:55:00,54.1,44.6,29.72,SSE,160,6.9,6.9,70,0.00,OVC,,0.00,WeatherDisplay:10.37,2013-03-11 22:55:00,
2013-03-11 19:00:00,54.3,44.7,29.72,SSE,160,6.9,6.9,70,0.00,OVC,,0.00,WeatherDisplay:10.37,2013-03-11 23:00:00,
2013-03-11 19:05:00,54.1,44.6,29.72,SSE,160,6.9,6.9,70,0.00,OVC,,0.00,WeatherDisplay:10.37,2013-03-11 23:05:00,
2013-03-11 19:10:00,54.1,44.6,29.73,SSE,160,6.9,6.9,70,0.00,OVC,,0.00,WeatherDisplay:10.37,2013-03-11 23:10:00,
2013-03-11 19:15:00,54.1,44.6,29.73,South,190,4.6,4.6,70,0.00,OVC,,0.00,WeatherDisplay:10.37,2013-03-11 23:15:00,
2013-03-11 19:20:00,54.1,44.6,29.73,South,190,4.6,4.6,70,0.00,OVC,,0.00,WeatherDisplay:10.37,2013-03-11 23:20:00,
2013-03-11 19:25:00,54.1,44.9,29.73,SSW,210,5.8,5.8,71,0.00,OVC,,0.00,WeatherDisplay:10.37,2013-03-11 23:25:00,
2013-03-11 19:30:00,54.0,44.8,29.73,SSW,210,5.8,5.8,71,0.00,OVC,,0.00,WeatherDisplay:10.37,2013-03-11 23:30:00,
2013-03-11 19:35:00,54.1,44.9,29.73,SSW,210,5.8,5.8,71,0.00,OVC,,0.00,WeatherDisplay:10.37,2013-03-11 23:35:00,
2013-03-11 19:40:00,54.0,44.8,29.72,SSW,210,5.8,5.8,71,0.00,OVC,,0.00,WeatherDisplay:10.37,2013-03-11 23:40:00,
2013-03-11 19:45:00,54.0,44.8,29.72,SSE,150,6.9,6.9,71,0.00,OVC,,0.00,WeatherDisplay:10.37,2013-03-11 23:45:00,
2013-03-11 19:50:00,54.0,44.8,29.71,SSE,150,6.9,6.9,71,0.00,OVC,,0.00,WeatherDisplay:10.37,2013-03-11 23:50:00,
2013-03-11 19:55:00,54.0,44.8,29.71,SSE,150,6.9,6.9,71,0.00,OVC,,0.00,WeatherDisplay:10.37,2013-03-11 23:55:00,
2013-03-11 20:00:00,54.0,44.8,29.71,SSE,150,6.9,6.9,71,0.00,OVC,,0.00,WeatherDisplay:10.37,2013-03-12 00:00:00,
2013-03-11 20:05:00,54.0,44.8,29.71,SSE,150,6.9,6.9,71,0.00,OVC,,0.00,WeatherDisplay:10.37,2013-03-12 00:05:00,
2013-03-11 20:10:00,54.0,44.8,29.72,SSE,150,6.9,6.9,71,0.00,OVC,,0.00,WeatherDisplay:10.37,2013-03-12 00:10:00,
2013-03-11 20:15:00,54.1,44.9,29.72,SSE,150,0.0,0.0,71,0.00,OVC,,0.00,WeatherDisplay:10.37,2013-03-12 00:15:00,
2013-03-11 20:20:00,54.1,44.9,29.72,SSE,150,0.0,0.0,71,0.00,OVC,,0.00,WeatherDisplay:10.37,2013-03-12 00:20:00,
2013-03-11 20:25:00,54.1,44.9,29.72,SSE,150,0.0,0.0,71,0.00,OVC,,0.00,WeatherDisplay:10.37,2013-03-12 00:25:00,
2013-03-11 20:30:00,54.1,44.9,29.71,SSE,150,0.0,0.0,71,0.00,OVC,,0.00,WeatherDisplay:10.37,2013-03-12 00:30:00,
2013-03-11 20:35:00,53.8,44.6,29.71,SSE,150,0.0,0.0,71,0.00,OVC,,0.00,WeatherDisplay:10.37,2013-03-12 00:35:00,
2013-03-11 20:40:00,53.8,45.0,29.71,SSE,150,0.0,0.0,72,0.00,OVC,,0.00,WeatherDisplay:10.37,2013-03-12 00:40:00,
2013-03-11 20:45:00,53.8,45.0,29.72,SSE,150,5.8,5.8,72,0.00,OVC,,0.00,WeatherDisplay:10.37,2013-03-12 00:45:00,
2013-03-11 20:50:00,54.0,45.1,29.70,SSE,150,5.8,5.8,72,0.00,OVC,,0.00,WeatherDisplay:10.37,2013-03-12 00:50:00,
2013-03-11 20:55:00,54.0,45.1,29.70,SSE,150,5.8,5.8,72,0.00,OVC,,0.00,WeatherDisplay:10.37,2013-03-12 00:55:00,
2013-03-11 21:00:00,54.3,45.5,29.70,SSE,150,5.8,5.8,72,0.00,OVC,,0.00,WeatherDisplay:10.37,2013-03-12 01:00:00,
2013-03-11 21:05:00,54.7,45.5,29.70,SW,230,3.5,3.5,71,0.00,OVC,,0.00,WeatherDisplay:10.37,2013-03-12 01:05:00,
2013-03-11 21:10:00,54.7,45.5,29.70,SW,230,3.5,3.5,71,0.00,OVC,,0.00,WeatherDisplay:10.37,2013-03-12 01:10:00,
2013-03-11 21:15:00,55.0,45.8,29.70,SW,230,3.5,3.5,71,0.00,OVC,,0.00,WeatherDisplay:10.37,2013-03-12 01:15:00,
2013-03-11 21:20:00,54.9,45.6,29.70,SW,230,3.5,3.5,71,0.00,OVC,,0.00,WeatherDisplay:10.37,2013-03-12 01:20:00,
2013-03-11 21:25:00,54.7,45.5,29.70,SW,230,0.0,0.0,71,0.00,-RA,,0.00,WeatherDisplay:10.37,2013-03-12 01:25:00,
2013-03-11 21:30:00,54.7,45.5,29.71,SW,230,0.0,0.0,71,0.00,-RA,,0.00,WeatherDisplay:10.37,2013-03-12 01:30:00,
2013-03-11 21:35:00,54.7,45.5,29.70,SW,230,0.0,0.0,71,0.00,-RA,,0.00,WeatherDisplay:10.37,2013-03-12 01:35:00,
2013-03-11 21:40:00,54.7,45.5,29.69,SW,230,0.0,0.0,71,0.00,-RA,,0.00,WeatherDisplay:10.37,2013-03-12 01:40:00,
2013-03-11 21:45:00,55.2,45.6,29.69,SW,230,0.0,0.0,70,0.00,-RA,,0.00,WeatherDisplay:10.37,2013-03-12 01:45:00,
2013-03-11 21:50:00,55.2,45.6,29.69,SW,230,0.0,0.0,70,0.00,-RA,,0.00,WeatherDisplay:10.37,2013-03-12 01:50:00,
2013-03-11 21:55:00,55.2,45.6,29.69,South,170,4.6,4.6,70,0.00,-DZ,,0.00,WeatherDisplay:10.37,2013-03-12 01:55:00,
2013-03-11 22:00:00,55.2,45.6,29.69,South,170,4.6,4.6,70,0.00,-DZ,,0.00,WeatherDisplay:10.37,2013-03-12 02:00:00,
2013-03-11 22:05:00,55.2,45.6,29.68,SSE,160,9.2,9.2,70,0.00,-RA,,0.00,WeatherDisplay:10.37,2013-03-12 02:05:00,
2013-03-11 22:10:00,55.0,45.8,29.68,SSE,160,9.2,9.2,71,0.00,-RA,,0.00,WeatherDisplay:10.37,2013-03-12 02:10:00,
2013-03-11 22:15:00,55.2,46.0,29.68,SSE,160,9.2,9.2,71,0.02,-RA,,0.02,WeatherDisplay:10.37,2013-03-12 02:15:00,
2013-03-11 22:20:00,55.2,46.3,29.68,SSE,160,9.2,9.2,72,0.02,-RA,,0.02,WeatherDisplay:10.37,2013-03-12 02:20:00,
2013-03-11 22:25:00,55.0,46.2,29.67,SSE,160,9.2,9.2,72,0.02,-RA,,0.02,WeatherDisplay:10.37,2013-03-12 02:25:00,
2013-03-11 22:30:00,55.2,46.3,29.67,SSE,160,9.2,9.2,72,0.02,-RA,,0.02,WeatherDisplay:10.37,2013-03-12 02:30:00,
2013-03-11 22:35:00,54.9,46.0,29.67,SSW,200,9.2,9.2,72,0.02,-RA,,0.02,WeatherDisplay:10.37,2013-03-12 02:35:00,
2013-03-11 22:40:00,54.9,46.4,29.66,SSW,200,9.2,9.2,73,0.02,-RA,,0.02,WeatherDisplay:10.37,2013-03-12 02:40:00,
2013-03-11 22:45:00,54.5,46.4,29.66,SSW,200,9.2,9.2,74,0.02,-RA,,0.02,WeatherDisplay:10.37,2013-03-12 02:45:00,
2013-03-11 22:50:00,54.7,46.6,29.66,SSW,200,9.2,9.2,74,0.02,-RA,,0.02,WeatherDisplay:10.37,2013-03-12 02:50:00,
2013-03-11 22:55:00,54.7,46.6,29.65,South,170,10.4,10.4,74,0.02,-RA,,0.02,WeatherDisplay:10.37,2013-03-12 02:55:00,
2013-03-11 23:00:00,54.3,46.2,29.65,South,170,10.4,10.4,74,0.02,-RA,,0.02,WeatherDisplay:10.37,2013-03-12 03:00:00,
2013-03-11 23:05:00,54.7,46.6,29.65,South,170,10.4,10.4,74,0.02,-RA,,0.02,WeatherDisplay:10.37,2013-03-12 03:05:00,
2013-03-11 23:10:00,54.7,46.6,29.65,South,170,10.4,10.4,74,0.02,-RA,,0.02,WeatherDisplay:10.37,2013-03-12 03:10:00,
2013-03-11 23:15:00,54.7,46.6,29.65,South,170,19.6,19.6,74,0.00,OVC,,0.02,WeatherDisplay:10.37,2013-03-12 03:15:00,
2013-03-11 23:20:00,54.7,46.9,29.65,South,170,19.6,19.6,75,0.00,OVC,,0.02,WeatherDisplay:10.37,2013-03-12 03:20:00,
2013-03-11 23:25:00,55.0,46.9,29.65,South,170,19.6,19.6,74,0.00,OVC,,0.02,WeatherDisplay:10.37,2013-03-12 03:25:00,
2013-03-11 23:30:00,55.0,46.9,29.65,South,170,19.6,19.6,74,0.00,OVC,,0.02,WeatherDisplay:10.37,2013-03-12 03:30:00,
2013-03-11 23:35:00,55.0,46.9,29.65,South,170,25.3,25.3,74,0.00,-DZ,,0.02,WeatherDisplay:10.37,2013-03-12 03:35:00,
2013-03-11 23:40:00,55.2,47.4,29.65,South,170,25.3,25.3,75,0.00,-DZ,,0.02,WeatherDisplay:10.37,2013-03-12 03:40:00,
2013-03-11 23:45:00,55.6,47.4,29.65,South,170,25.3,25.3,74,0.00,-DZ,,0.02,WeatherDisplay:10.37,2013-03-12 03:45:00,
2013-03-11 23:50:00,55.6,47.4,29.64,South,170,25.3,25.3,74,0.00,-DZ,,0.02,WeatherDisplay:10.37,2013-03-12 03:50:00,
2013-03-11 23:55:00,55.8,47.6,29.64,South,190,20.7,20.7,74,0.00,BKN,,0.02,WeatherDisplay:10.37,2013-03-12 03:55:00,